FENGYUN 1C DEB, 30469

Orbit data source: Space-Track

FENGYUN 1C DEB, 30469 is space debris in SSO originally from a launch on Mon, 10 May 1999 UTC launched from the Taiyaun Space Center, China (TSC). Fengyun 1C debris stems from the Chinese weather satellite Fengyun-1C, which was intentionally destroyed by a Chinese anti-satellite missile in 2007. This event dramatically increased the amount of space debris, with thousands of trackable fragments posing hazards to satellites and human spaceflight. The Fengyun 1C debris cloud has become a focal point in discussions about space sustainability and the need for international regulations to prevent the creation of new debris.

Loading next visibility...
Identifier
30469, 1999-025AGG
Orbit
SSO
Country
Flag of CNCN / PRC
Related business
Manufacturer
Unknown
Mission
Spacecraft
Bus & Motor
Unknown
Mass
Unknown
Launch date (UTC)
1999-05-10 (26 years ago)
Launch vehicle
Unknown
Launch site
Taiyaun Space Center, China (TSC)
Object type
Payload
Rocket body
Debris
Shape & HBR
Unknown shape, 0.1 m
Radar Cross Section
Small (<0.1 m²)

Expand to show TLE details & history
Last TLE update: 2 days ago

TLE from 2 days ago
0 FENGYUN 1C DEB
1 30469U 99025AGG 25308.12540580  .00001831  00000-0  12203-2 0  9993
2 30469  98.4804 161.8268 0159231 277.9991 208.3497 13.96356343951678
Epoch: 2025-11-04T03:00Z
TLE epoch observation values (Epoch: 2025-11-04T03:00:35.061Z)
Latitude
53.73117°
Longitude
-95.27286°
Altitude
1,017.728 km
Speed
7.296 km/s
True Right ascension
23h 33m 57s
True Declination
53° 34' 22"
Sunlit
Object was in full shadow at epoch
Visualization orbit readout
Latitude
Unknown
Longitude
Unknown
Altitude
Unknown
Speed
Unknown
Apparent Right ascension
Unknown
Apparent Declination
Unknown
Sunlit
N/A
Visualization observer readout
Local Sidereal Time
11:58:25
Azimuth
Unknown
Elevation
Unknown
Doppler factor
Unknown
Orbital elements
Apogee altitude
1,019.567 km
Perigee altitude
787.67 km
Semi-major axis
7,281.755 km
Eccentricity
0.01592
Inclination
98.4804°
RAAN
161.8268°
Arg. of periapsis
277.9991°
True anomaly
207.49822°
Mean anomaly
208.3497°
Eccentric anomaly
207.92248°
Mean motion
3.49292 °/min
Orbital period
103.07 mins
BSTAR
0.0012203
Loading maneuver chart data...
Computing Atmospheric mass density...

Documentation

Showing up to 5 results
|